Time,TemperatureF,DewpointF,PressureIn,WindDirection,WindDirectionDegrees,WindSpeedMPH,WindSpeedGustMPH,Humidity,HourlyPrecipIn,Conditions,Clouds,dailyrainin,SoftwareType,DateUTC
2013-07-01 00:11:00,60.0,-99.9,-100.00,NW,320,3.0,4.0,-999,0.00,,,-99.99,,2013-07-01 05:11:00,
2013-07-01 00:33:00,60.0,-99.9,-100.00,NW,325,5.0,6.0,-999,0.00,,,-99.99,,2013-07-01 05:33:00,
2013-07-01 00:42:00,59.0,59.0,-100.00,NNW,340,4.0,6.0,99,0.00,,,-99.99,,2013-07-01 05:42:00,
2013-07-01 00:52:00,59.0,59.0,-100.00,NNW,345,6.0,6.0,99,0.00,,,-99.99,,2013-07-01 05:52:00,
2013-07-01 01:02:00,59.0,59.0,-100.00,NNW,345,6.0,6.0,99,0.00,,,-99.99,,2013-07-01 06:02:00,
2013-07-01 01:12:00,59.0,59.0,-100.00,North,0,3.0,4.0,99,0.00,,,-99.99,,2013-07-01 06:12:00,
2013-07-01 01:33:00,58.0,58.0,-100.00,NNW,340,4.0,4.0,99,0.00,,,-99.99,,2013-07-01 06:33:00,
2013-07-01 01:43:00,58.0,58.0,-100.00,NNW,340,4.0,6.0,99,0.00,,,-99.99,,2013-07-01 06:43:00,
2013-07-01 02:11:00,58.0,58.0,-100.00,North,350,4.0,4.0,99,0.00,,,-99.99,,2013-07-01 07:11:00,
2013-07-01 02:33:00,57.0,57.0,-100.00,North,350,4.0,4.0,99,0.00,,,-99.99,,2013-07-01 07:33:00,
2013-07-01 02:43:00,57.0,-99.9,-100.00,North,350,4.0,5.0,-999,0.00,,,-99.99,,2013-07-01 07:43:00,
2013-07-01 02:53:00,57.0,57.0,-100.00,North,355,3.0,4.0,99,0.00,,,-99.99,,2013-07-01 07:53:00,
2013-07-01 03:12:00,56.0,-99.9,-100.00,North,355,3.0,4.0,-999,0.00,,,-99.99,,2013-07-01 08:12:00,
2013-07-01 03:33:00,56.0,56.0,-100.00,NNW,335,4.0,4.0,99,0.00,,,-99.99,,2013-07-01 08:33:00,
2013-07-01 03:42:00,55.0,55.0,-100.00,NNW,340,4.0,4.0,99,0.00,,,-99.99,,2013-07-01 08:42:00,
2013-07-01 03:52:00,55.0,55.0,-100.00,NNW,340,4.0,4.0,99,0.00,,,-99.99,,2013-07-01 08:52:00,
2013-07-01 04:02:00,55.0,55.0,-100.00,NNW,340,4.0,4.0,99,0.00,,,-99.99,,2013-07-01 09:02:00,
2013-07-01 04:34:00,55.0,55.0,-100.00,NNW,335,1.0,2.0,99,0.00,,,-99.99,,2013-07-01 09:34:00,
2013-07-01 04:43:00,55.0,55.0,-100.00,North,0,2.0,6.0,99,0.00,,,-99.99,,2013-07-01 09:43:00,
2013-07-01 04:53:00,55.0,55.0,-100.00,North,355,1.0,3.0,99,0.00,,,-99.99,,2013-07-01 09:53:00,
2013-07-01 05:33:00,54.0,-99.9,-100.00,NW,325,3.0,4.0,-999,0.00,,,-99.99,,2013-07-01 10:33:00,
2013-07-01 05:42:00,54.0,54.0,-100.00,NNW,345,2.0,4.0,99,0.00,,,-99.99,,2013-07-01 10:42:00,
2013-07-01 05:52:00,54.0,54.0,-100.00,NNW,345,2.0,4.0,99,0.00,,,-99.99,,2013-07-01 10:52:00,
2013-07-01 06:11:00,54.0,54.0,-100.00,North,0,1.0,4.0,99,0.00,,,-99.99,,2013-07-01 11:11:00,
2013-07-01 06:33:00,55.0,55.0,-100.00,NNW,340,4.0,4.0,99,0.00,,,-99.99,,2013-07-01 11:33:00,
2013-07-01 06:43:00,56.0,56.0,-100.00,NNW,335,3.0,5.0,99,0.00,,,-99.99,,2013-07-01 11:43:00,
2013-07-01 07:11:00,58.0,58.0,-100.00,NW,325,4.0,6.0,99,0.00,,,-99.99,,2013-07-01 12:11:00,
2013-07-01 07:33:00,59.0,-99.9,-100.00,NW,325,4.0,6.0,-999,0.00,,,-99.99,,2013-07-01 12:33:00,
2013-07-01 07:43:00,60.0,60.0,-100.00,NW,315,4.0,5.0,99,0.00,,,-99.99,,2013-07-01 12:43:00,
2013-07-01 07:53:00,61.0,61.0,-100.00,NW,305,4.0,5.0,99,0.00,,,-99.99,,2013-07-01 12:53:00,
2013-07-01 08:12:00,63.0,63.0,-100.00,NNW,330,4.0,6.0,99,0.00,,,-99.99,,2013-07-01 13:12:00,
2013-07-01 08:33:00,63.0,63.0,-100.00,NNW,345,5.0,7.0,99,0.00,,,-99.99,,2013-07-01 13:33:00,
2013-07-01 10:11:00,71.0,65.0,-100.00,North,5,6.0,9.0,81,0.00,,,-99.99,,2013-07-01 15:11:00,
2013-07-01 10:34:00,72.0,62.0,-100.00,NNE,15,6.0,9.0,69,0.00,,,-99.99,,2013-07-01 15:34:00,
2013-07-01 10:43:00,74.0,58.0,-100.00,NE,55,7.0,11.0,57,0.00,,,-99.99,,2013-07-01 15:43:00,
2013-07-01 10:52:00,74.0,58.0,-100.00,NE,45,9.0,14.0,57,0.00,,,-99.99,,2013-07-01 15:52:00,
2013-07-01 11:33:00,76.0,59.0,-100.00,NE,50,7.0,12.0,54,0.00,,,-99.99,,2013-07-01 16:33:00,
2013-07-01 11:44:00,76.0,58.0,-100.00,NNE,15,10.0,15.0,53,0.00,,,-99.99,,2013-07-01 16:44:00,
2013-07-01 11:53:00,76.0,58.0,-100.00,NE,45,12.0,17.0,53,0.00,,,-99.99,,2013-07-01 16:53:00,
2013-07-01 12:12:00,76.0,58.0,-100.00,NE,40,11.0,16.0,52,0.00,,,-99.99,,2013-07-01 17:12:00,
2013-07-01 12:34:00,76.0,57.0,-100.00,NNE,30,10.0,16.0,51,0.00,,,-99.99,,2013-07-01 17:34:00,
2013-07-01 12:43:00,77.0,58.0,-100.00,NE,55,12.0,18.0,51,0.00,,,-99.99,,2013-07-01 17:43:00,
2013-07-01 12:53:00,77.0,58.0,-100.00,NE,40,16.0,21.0,51,0.00,,,-99.99,,2013-07-01 17:53:00,
2013-07-01 13:33:00,77.0,58.0,-100.00,NE,45,15.0,24.0,51,0.00,,,-99.99,,2013-07-01 18:33:00,
2013-07-01 13:43:00,78.0,58.0,-100.00,North,5,14.0,21.0,50,0.00,,,-99.99,,2013-07-01 18:43:00,
2013-07-01 14:11:00,78.0,57.0,-100.00,NNE,30,15.0,21.0,48,0.00,,,-99.99,,2013-07-01 19:11:00,
2013-07-01 14:33:00,78.0,58.0,-100.00,North,5,14.0,21.0,50,0.00,,,-99.99,,2013-07-01 19:33:00,
2013-07-01 14:44:00,78.0,57.0,-100.00,NNE,20,14.0,20.0,48,0.00,,,-99.99,,2013-07-01 19:44:00,
2013-07-01 14:52:00,78.0,55.0,-100.00,NE,35,15.0,19.0,44,0.00,,,-99.99,,2013-07-01 19:52:00,
2013-07-01 15:11:00,79.0,55.0,-100.00,NE,50,16.0,20.0,44,0.00,,,-99.99,,2013-07-01 20:11:00,
2013-07-01 15:34:00,79.0,57.0,-100.00,NNE,25,7.0,17.0,48,0.00,,,-99.99,,2013-07-01 20:34:00,
2013-07-01 15:43:00,79.0,58.0,-100.00,NNE,30,9.0,21.0,48,0.00,,,-99.99,,2013-07-01 20:43:00,
2013-07-01 15:52:00,79.0,56.0,-100.00,ENE,60,15.0,19.0,45,0.00,,,-99.99,,2013-07-01 20:52:00,
2013-07-01 16:11:00,79.0,59.0,-100.00,NE,45,12.0,19.0,50,0.00,,,-99.99,,2013-07-01 21:11:00,
2013-07-01 16:34:00,79.0,59.0,-100.00,NE,55,12.0,19.0,50,0.00,,,-99.99,,2013-07-01 21:34:00,
2013-07-01 16:43:00,79.0,58.0,-100.00,NE,40,10.0,20.0,48,0.00,,,-99.99,,2013-07-01 21:43:00,
2013-07-01 17:01:00,79.0,56.0,-100.00,NE,55,13.0,21.0,45,0.00,,,-99.99,,2013-07-01 22:01:00,
2013-07-01 17:11:00,79.0,58.0,-100.00,NE,50,14.0,19.0,48,0.00,,,-99.99,,2013-07-01 22:11:00,
2013-07-01 17:33:00,79.0,59.0,-100.00,ENE,60,11.0,17.0,50,0.00,,,-99.99,,2013-07-01 22:33:00,
2013-07-01 17:43:00,79.0,59.0,-100.00,NE,50,16.0,20.0,49,0.00,,,-99.99,,2013-07-01 22:43:00,
2013-07-01 18:33:00,78.0,60.0,-100.00,NE,55,13.0,21.0,52,0.00,,,-99.99,,2013-07-01 23:33:00,
2013-07-01 18:44:00,77.0,59.0,-100.00,NE,50,10.0,19.0,54,0.00,,,-99.99,,2013-07-01 23:44:00,
2013-07-01 18:53:00,77.0,58.0,-100.00,NE,50,12.0,16.0,52,0.00,,,-99.99,,2013-07-01 23:53:00,
2013-07-01 19:34:00,77.0,59.0,-100.00,NE,50,10.0,15.0,54,0.00,,,-99.99,,2013-07-02 00:34:00,
2013-07-01 19:43:00,76.0,60.0,-100.00,NE,50,7.0,12.0,57,0.00,,,-99.99,,2013-07-02 00:43:00,
2013-07-01 19:53:00,76.0,60.0,-100.00,NE,50,7.0,12.0,57,0.00,,,-99.99,,2013-07-02 00:53:00,
2013-07-01 20:33:00,73.0,61.0,-100.00,NE,50,6.0,7.0,64,0.00,,,-99.99,,2013-07-02 01:33:00,
2013-07-01 20:43:00,72.0,60.0,-100.00,NE,35,5.0,7.0,65,0.00,,,-99.99,,2013-07-02 01:43:00,
2013-07-01 20:53:00,72.0,61.0,-100.00,NE,40,5.0,6.0,68,0.00,,,-99.99,,2013-07-02 01:53:00,
2013-07-01 22:43:00,62.0,62.0,-100.00,SW,215,0.0,1.0,99,0.00,,,-99.99,,2013-07-02 03:43:00,
2013-07-01 22:53:00,62.0,62.0,-100.00,ESE,120,0.0,1.0,99,0.00,,,-99.99,,2013-07-02 03:53:00,
2013-07-01 23:32:00,61.0,61.0,-100.00,NW,320,2.0,2.0,99,0.00,,,-99.99,,2013-07-02 04:32:00,
2013-07-01 23:42:00,60.0,60.0,-100.00,NNW,345,1.0,2.0,99,0.00,,,-99.99,,2013-07-02 04:42:00,
2013-07-01 23:53:00,60.0,60.0,-100.00,North,350,1.0,1.0,99,0.00,,,-99.99,,2013-07-02 04:53:00,